sat.trackr.live / text

‹ back to catalog

STARLINK-32200

NORAD 60258 · 2024-131D

PAYLOAD ACTIVE UNKNOWN

§ Identity

Operator
Country
US
Launch date
2024-07-27
Launch site
AFETR
Launch vehicle
Mass (kg)
RCS (m²)

Purposes: comms

External: N2YO · Heavens-Above · Gunter

§ Orbital elements

Epoch: 2026-09-21T07:17:56.596128Z

Period
93.85 min
Inclination
53.1577°
Eccentricity
0.0001262
Mean motion
15.34396615 rev/d
Perigee alt
461.8 km
Apogee alt
463.6 km
Semi-major
6,840.9 km
B*
9.3076e-6
RAAN
222.0126°
Arg perigee
85.6175°
Mean anomaly
274.4972°
Rev number
12,169

§ Raw data

STARLINK-322001 60258U 24131D   26264.30412727 -.00000062  00000+0  93076-5 0  99962 60258  53.1577 222.0126 0001262  85.6175 274.4972 15.34396615121696

JSON: /api/v1/satellites/60258 · /tle

For live sub-satellite position, see the globe view (requires WebGL).

§ Visibility from observer

Set your observer location to see the next 7 days of passes ≥ 10°. The values pass through the URL so the page stays shareable.

No JS? Fill the form by hand. The geolocation button needs JavaScript.